asset_id,template_id,mint,schema,rarity,name
1099565307757,286919,802,crptomonkeys,Uncommon,Pool Party
1099565307805,286919,850,crptomonkeys,Uncommon,Pool Party
1099565307882,286919,911,crptomonkeys,Uncommon,Pool Party
1099565307895,286919,924,crptomonkeys,Uncommon,Pool Party
1099565307900,286919,929,crptomonkeys,Uncommon,Pool Party
1099565307901,286919,930,crptomonkeys,Uncommon,Pool Party
1099565307905,286919,934,crptomonkeys,Uncommon,Pool Party
1099565307931,286919,960,crptomonkeys,Uncommon,Pool Party
1099565307949,286919,978,crptomonkeys,Uncommon,Pool Party
1099878894281,289324,9940,packs,,monKeypack by cryptomonKeys (1st edition)
1099878894287,289324,9946,packs,,monKeypack by cryptomonKeys (1st edition)
1099800449693,541468,920,monkeystacks,Common,JungleTV's Time of the Year
1099800450017,541468,1115,monkeystacks,Common,JungleTV's Time of the Year
1099800451019,541468,1722,monkeystacks,Common,JungleTV's Time of the Year
1099800451396,541468,2000,monkeystacks,Common,JungleTV's Time of the Year
1099800451703,541468,2188,monkeystacks,Common,JungleTV's Time of the Year
1099800446757,541469,161,monkeystacks,Uncommon,JungleTV's Italian Spiderman
1099800307941,541472,1,monkeystacks,Rare,JungleTV Goes Mooo!
1099800308454,541473,1,monkeystacks,Epic,JungleTV Sings Chandelier
1099800315319,541473,60,monkeystacks,Epic,JungleTV Sings Chandelier
1099882363061,595229,7181,crptomonkeys,Common,Jungle Gym
1099882363062,595229,7182,crptomonkeys,Common,Jungle Gym
1099882363069,595229,7189,crptomonkeys,Common,Jungle Gym
1099882363073,595229,7193,crptomonkeys,Common,Jungle Gym
1099882364836,595229,7244,crptomonkeys,Common,Jungle Gym
1099882364838,595229,7246,crptomonkeys,Common,Jungle Gym
1099882364859,595229,7267,crptomonkeys,Common,Jungle Gym
1099847522923,602002,1472,monkeystacks,Uncommon,Jojo Market
1099847522931,602002,1480,monkeystacks,Uncommon,Jojo Market
1099847522952,602002,1501,monkeystacks,Uncommon,Jojo Market
1099882345352,602830,2753,packs,,monKeypack by cryptomonKeys (2nd edition)
1099919337357,602830,2881,packs,,monKeypack by cryptomonKeys (2nd edition)
1099919337381,602830,2905,packs,,monKeypack by cryptomonKeys (2nd edition)
1099847523086,611865,1223,monkeystacks,Uncommon,Dungeons & Banano Halloween Edition
1099919341058,617504,9071,crptomonkeys,Common,Banspiracy
1099858600937,617508,1782,crptomonkeys,Uncommon,Lights Off
1099882369889,640424,6259,crptomonkeys,Common,The Custodian
1099878898204,674148,297,monkeystacks,Rare,The Movies Combo
1099878898449,674148,337,monkeystacks,Rare,The Movies Combo
1099878898346,683627,224,monkeystacks,Rare,Bye Banks v.0.19
1099878903654,684150,213,monkeystacks,Rare,Mother's Day 2023
1099919341584,742319,6335,crptomonkeys,Common,Folding At Homequarters
1099929810215,788913,170,monkeystacks,Uncommon,JungleTV's Special Fried Rice
1099929810216,788913,171,monkeystacks,Uncommon,JungleTV's Special Fried Rice
1099929810217,788913,172,monkeystacks,Uncommon,JungleTV's Special Fried Rice
1099929810218,788913,173,monkeystacks,Uncommon,JungleTV's Special Fried Rice
1099929810219,788913,174,monkeystacks,Uncommon,JungleTV's Special Fried Rice
1099929810220,788913,175,monkeystacks,Uncommon,JungleTV's Special Fried Rice
1099929810221,788913,176,monkeystacks,Uncommon,JungleTV's Special Fried Rice
1099929810222,788913,177,monkeystacks,Uncommon,JungleTV's Special Fried Rice
1099929810223,788913,178,monkeystacks,Uncommon,JungleTV's Special Fried Rice
1099929810224,788913,179,monkeystacks,Uncommon,JungleTV's Special Fried Rice
1099929810225,788913,180,monkeystacks,Uncommon,JungleTV's Special Fried Rice
1099929810226,788913,181,monkeystacks,Uncommon,JungleTV's Special Fried Rice
1099929810227,788913,182,monkeystacks,Uncommon,JungleTV's Special Fried Rice
1099929810228,788913,183,monkeystacks,Uncommon,JungleTV's Special Fried Rice
1099929810229,788913,184,monkeystacks,Uncommon,JungleTV's Special Fried Rice
1099929810230,788913,185,monkeystacks,Uncommon,JungleTV's Special Fried Rice
1099929810231,788913,186,monkeystacks,Uncommon,JungleTV's Special Fried Rice
1099929810232,788913,187,monkeystacks,Uncommon,JungleTV's Special Fried Rice
1099929810233,788913,188,monkeystacks,Uncommon,JungleTV's Special Fried Rice
1099929810234,788913,189,monkeystacks,Uncommon,JungleTV's Special Fried Rice
1099929810235,788913,190,monkeystacks,Uncommon,JungleTV's Special Fried Rice
1099929810236,788913,191,monkeystacks,Uncommon,JungleTV's Special Fried Rice
1099929810237,788913,192,monkeystacks,Uncommon,JungleTV's Special Fried Rice
1099929810238,788913,193,monkeystacks,Uncommon,JungleTV's Special Fried Rice
1099929810239,788913,194,monkeystacks,Uncommon,JungleTV's Special Fried Rice
1099929810240,788913,195,monkeystacks,Uncommon,JungleTV's Special Fried Rice
1099929810241,788913,196,monkeystacks,Uncommon,JungleTV's Special Fried Rice
1099929810242,788913,197,monkeystacks,Uncommon,JungleTV's Special Fried Rice
1099929810243,788913,198,monkeystacks,Uncommon,JungleTV's Special Fried Rice
1099929810244,788913,199,monkeystacks,Uncommon,JungleTV's Special Fried Rice
1099929810245,788913,200,monkeystacks,Uncommon,JungleTV's Special Fried Rice
1099929810246,788913,201,monkeystacks,Uncommon,JungleTV's Special Fried Rice
1099929810247,788913,202,monkeystacks,Uncommon,JungleTV's Special Fried Rice
1099929810248,788913,203,monkeystacks,Uncommon,JungleTV's Special Fried Rice
1099929810249,788913,204,monkeystacks,Uncommon,JungleTV's Special Fried Rice
1099929810250,788913,205,monkeystacks,Uncommon,JungleTV's Special Fried Rice
1099929810251,788913,206,monkeystacks,Uncommon,JungleTV's Special Fried Rice
1099929810252,788913,207,monkeystacks,Uncommon,JungleTV's Special Fried Rice
1099929810253,788913,208,monkeystacks,Uncommon,JungleTV's Special Fried Rice
1099929810254,788913,209,monkeystacks,Uncommon,JungleTV's Special Fried Rice
1099929810255,788913,210,monkeystacks,Uncommon,JungleTV's Special Fried Rice
1099929810256,788913,211,monkeystacks,Uncommon,JungleTV's Special Fried Rice
1099929810257,788913,212,monkeystacks,Uncommon,JungleTV's Special Fried Rice
1099929810258,788913,213,monkeystacks,Uncommon,JungleTV's Special Fried Rice
1099929810259,788913,214,monkeystacks,Uncommon,JungleTV's Special Fried Rice
1099929810260,788913,215,monkeystacks,Uncommon,JungleTV's Special Fried Rice
1099929810261,788913,216,monkeystacks,Uncommon,JungleTV's Special Fried Rice
1099929810262,788913,217,monkeystacks,Uncommon,JungleTV's Special Fried Rice
1099929810263,788913,218,monkeystacks,Uncommon,JungleTV's Special Fried Rice
1099929810264,788913,219,monkeystacks,Uncommon,JungleTV's Special Fried Rice
1099929810299,788913,220,monkeystacks,Uncommon,JungleTV's Special Fried Rice
1099929810300,788913,221,monkeystacks,Uncommon,JungleTV's Special Fried Rice
1099929810301,788913,222,monkeystacks,Uncommon,JungleTV's Special Fried Rice
1099929810302,788913,223,monkeystacks,Uncommon,JungleTV's Special Fried Rice
1099929810303,788913,224,monkeystacks,Uncommon,JungleTV's Special Fried Rice
1099929810304,788913,225,monkeystacks,Uncommon,JungleTV's Special Fried Rice
1099929810305,788913,226,monkeystacks,Uncommon,JungleTV's Special Fried Rice
1099929810306,788913,227,monkeystacks,Uncommon,JungleTV's Special Fried Rice
1099929810307,788913,228,monkeystacks,Uncommon,JungleTV's Special Fried Rice
1099929810308,788913,229,monkeystacks,Uncommon,JungleTV's Special Fried Rice
1099929810309,788913,230,monkeystacks,Uncommon,JungleTV's Special Fried Rice
1099929810310,788913,231,monkeystacks,Uncommon,JungleTV's Special Fried Rice
1099929810311,788913,232,monkeystacks,Uncommon,JungleTV's Special Fried Rice
1099929810312,788913,233,monkeystacks,Uncommon,JungleTV's Special Fried Rice
1099929810313,788913,234,monkeystacks,Uncommon,JungleTV's Special Fried Rice
1099929810314,788913,235,monkeystacks,Uncommon,JungleTV's Special Fried Rice
1099929810315,788913,236,monkeystacks,Uncommon,JungleTV's Special Fried Rice
1099929810316,788913,237,monkeystacks,Uncommon,JungleTV's Special Fried Rice
1099929810317,788913,238,monkeystacks,Uncommon,JungleTV's Special Fried Rice
1099929810318,788913,239,monkeystacks,Uncommon,JungleTV's Special Fried Rice
1099929810319,788913,240,monkeystacks,Uncommon,JungleTV's Special Fried Rice
1099929810320,788913,241,monkeystacks,Uncommon,JungleTV's Special Fried Rice
1099929810321,788913,242,monkeystacks,Uncommon,JungleTV's Special Fried Rice
1099929810322,788913,243,monkeystacks,Uncommon,JungleTV's Special Fried Rice
1099929810323,788913,244,monkeystacks,Uncommon,JungleTV's Special Fried Rice
1099929810324,788913,245,monkeystacks,Uncommon,JungleTV's Special Fried Rice
1099929810325,788913,246,monkeystacks,Uncommon,JungleTV's Special Fried Rice
1099929810326,788913,247,monkeystacks,Uncommon,JungleTV's Special Fried Rice
1099929810327,788913,248,monkeystacks,Uncommon,JungleTV's Special Fried Rice
1099929810328,788913,249,monkeystacks,Uncommon,JungleTV's Special Fried Rice
1099929810329,788913,250,monkeystacks,Uncommon,JungleTV's Special Fried Rice
1099929810330,788913,251,monkeystacks,Uncommon,JungleTV's Special Fried Rice
1099929810331,788913,252,monkeystacks,Uncommon,JungleTV's Special Fried Rice
1099929810332,788913,253,monkeystacks,Uncommon,JungleTV's Special Fried Rice
1099929810333,788913,254,monkeystacks,Uncommon,JungleTV's Special Fried Rice
1099929810334,788913,255,monkeystacks,Uncommon,JungleTV's Special Fried Rice
1099929810335,788913,256,monkeystacks,Uncommon,JungleTV's Special Fried Rice
1099929810336,788913,257,monkeystacks,Uncommon,JungleTV's Special Fried Rice
1099929810337,788913,258,monkeystacks,Uncommon,JungleTV's Special Fried Rice
1099929810338,788913,259,monkeystacks,Uncommon,JungleTV's Special Fried Rice
1099929810339,788913,260,monkeystacks,Uncommon,JungleTV's Special Fried Rice
1099929810340,788913,261,monkeystacks,Uncommon,JungleTV's Special Fried Rice
1099929810341,788913,262,monkeystacks,Uncommon,JungleTV's Special Fried Rice
1099929810342,788913,263,monkeystacks,Uncommon,JungleTV's Special Fried Rice
1099929810343,788913,264,monkeystacks,Uncommon,JungleTV's Special Fried Rice
1099929810344,788913,265,monkeystacks,Uncommon,JungleTV's Special Fried Rice
1099929810345,788913,266,monkeystacks,Uncommon,JungleTV's Special Fried Rice
1099929810346,788913,267,monkeystacks,Uncommon,JungleTV's Special Fried Rice
1099929810347,788913,268,monkeystacks,Uncommon,JungleTV's Special Fried Rice
1099929810348,788913,269,monkeystacks,Uncommon,JungleTV's Special Fried Rice
1099929810353,788913,270,monkeystacks,Uncommon,JungleTV's Special Fried Rice
1099929810354,788913,271,monkeystacks,Uncommon,JungleTV's Special Fried Rice
1099929810355,788913,272,monkeystacks,Uncommon,JungleTV's Special Fried Rice
1099929810356,788913,273,monkeystacks,Uncommon,JungleTV's Special Fried Rice
1099929810357,788913,274,monkeystacks,Uncommon,JungleTV's Special Fried Rice
1099929810358,788913,275,monkeystacks,Uncommon,JungleTV's Special Fried Rice
1099929810359,788913,276,monkeystacks,Uncommon,JungleTV's Special Fried Rice
1099929810360,788913,277,monkeystacks,Uncommon,JungleTV's Special Fried Rice
1099929810361,788913,278,monkeystacks,Uncommon,JungleTV's Special Fried Rice
1099929810362,788913,279,monkeystacks,Uncommon,JungleTV's Special Fried Rice
1099929810363,788913,280,monkeystacks,Uncommon,JungleTV's Special Fried Rice
1099929810364,788913,281,monkeystacks,Uncommon,JungleTV's Special Fried Rice
1099929810365,788913,282,monkeystacks,Uncommon,JungleTV's Special Fried Rice
1099929810366,788913,283,monkeystacks,Uncommon,JungleTV's Special Fried Rice
1099929810367,788913,284,monkeystacks,Uncommon,JungleTV's Special Fried Rice
1099929810368,788913,285,monkeystacks,Uncommon,JungleTV's Special Fried Rice
1099929810369,788913,286,monkeystacks,Uncommon,JungleTV's Special Fried Rice
1099929810370,788913,287,monkeystacks,Uncommon,JungleTV's Special Fried Rice
1099929810371,788913,288,monkeystacks,Uncommon,JungleTV's Special Fried Rice
1099929810372,788913,289,monkeystacks,Uncommon,JungleTV's Special Fried Rice
1099929810373,788913,290,monkeystacks,Uncommon,JungleTV's Special Fried Rice
1099929810374,788913,291,monkeystacks,Uncommon,JungleTV's Special Fried Rice
1099929810375,788913,292,monkeystacks,Uncommon,JungleTV's Special Fried Rice
1099929810376,788913,293,monkeystacks,Uncommon,JungleTV's Special Fried Rice
1099929810377,788913,294,monkeystacks,Uncommon,JungleTV's Special Fried Rice
1099929810378,788913,295,monkeystacks,Uncommon,JungleTV's Special Fried Rice
1099929810379,788913,296,monkeystacks,Uncommon,JungleTV's Special Fried Rice
1099929810380,788913,297,monkeystacks,Uncommon,JungleTV's Special Fried Rice
1099929810381,788913,298,monkeystacks,Uncommon,JungleTV's Special Fried Rice
1099929810382,788913,299,monkeystacks,Uncommon,JungleTV's Special Fried Rice
1099929810383,788913,300,monkeystacks,Uncommon,JungleTV's Special Fried Rice
1099929810384,788913,301,monkeystacks,Uncommon,JungleTV's Special Fried Rice
1099929810385,788913,302,monkeystacks,Uncommon,JungleTV's Special Fried Rice
1099929810386,788913,303,monkeystacks,Uncommon,JungleTV's Special Fried Rice
1099929810387,788913,304,monkeystacks,Uncommon,JungleTV's Special Fried Rice
1099929810388,788913,305,monkeystacks,Uncommon,JungleTV's Special Fried Rice
1099929810389,788913,306,monkeystacks,Uncommon,JungleTV's Special Fried Rice
1099929810390,788913,307,monkeystacks,Uncommon,JungleTV's Special Fried Rice
1099929810391,788913,308,monkeystacks,Uncommon,JungleTV's Special Fried Rice
1099929810392,788913,309,monkeystacks,Uncommon,JungleTV's Special Fried Rice
1099929810393,788913,310,monkeystacks,Uncommon,JungleTV's Special Fried Rice
1099929810394,788913,311,monkeystacks,Uncommon,JungleTV's Special Fried Rice
1099929810395,788913,312,monkeystacks,Uncommon,JungleTV's Special Fried Rice
1099929810396,788913,313,monkeystacks,Uncommon,JungleTV's Special Fried Rice
1099929810397,788913,314,monkeystacks,Uncommon,JungleTV's Special Fried Rice
1099929810398,788913,315,monkeystacks,Uncommon,JungleTV's Special Fried Rice
1099929810399,788913,316,monkeystacks,Uncommon,JungleTV's Special Fried Rice
1099929810400,788913,317,monkeystacks,Uncommon,JungleTV's Special Fried Rice
1099929810401,788913,318,monkeystacks,Uncommon,JungleTV's Special Fried Rice
1099929810402,788913,319,monkeystacks,Uncommon,JungleTV's Special Fried Rice
1099929810407,788913,320,monkeystacks,Uncommon,JungleTV's Special Fried Rice
1099929810408,788913,321,monkeystacks,Uncommon,JungleTV's Special Fried Rice
1099929810409,788913,322,monkeystacks,Uncommon,JungleTV's Special Fried Rice
1099929810410,788913,323,monkeystacks,Uncommon,JungleTV's Special Fried Rice
1099929810411,788913,324,monkeystacks,Uncommon,JungleTV's Special Fried Rice
1099929810412,788913,325,monkeystacks,Uncommon,JungleTV's Special Fried Rice
1099929810413,788913,326,monkeystacks,Uncommon,JungleTV's Special Fried Rice
1099929810414,788913,327,monkeystacks,Uncommon,JungleTV's Special Fried Rice
1099929810415,788913,328,monkeystacks,Uncommon,JungleTV's Special Fried Rice
1099929810416,788913,329,monkeystacks,Uncommon,JungleTV's Special Fried Rice
1099929810417,788913,330,monkeystacks,Uncommon,JungleTV's Special Fried Rice
1099929810418,788913,331,monkeystacks,Uncommon,JungleTV's Special Fried Rice
1099929810419,788913,332,monkeystacks,Uncommon,JungleTV's Special Fried Rice
1099929810420,788913,333,monkeystacks,Uncommon,JungleTV's Special Fried Rice
1099929810421,788913,334,monkeystacks,Uncommon,JungleTV's Special Fried Rice
1099929810422,788913,335,monkeystacks,Uncommon,JungleTV's Special Fried Rice
1099929810423,788913,336,monkeystacks,Uncommon,JungleTV's Special Fried Rice
1099929810424,788913,337,monkeystacks,Uncommon,JungleTV's Special Fried Rice
1099929810425,788913,338,monkeystacks,Uncommon,JungleTV's Special Fried Rice
1099929810426,788913,339,monkeystacks,Uncommon,JungleTV's Special Fried Rice
1099929810427,788913,340,monkeystacks,Uncommon,JungleTV's Special Fried Rice
1099929810428,788913,341,monkeystacks,Uncommon,JungleTV's Special Fried Rice
1099929810429,788913,342,monkeystacks,Uncommon,JungleTV's Special Fried Rice
1099929810430,788913,343,monkeystacks,Uncommon,JungleTV's Special Fried Rice
1099929810431,788913,344,monkeystacks,Uncommon,JungleTV's Special Fried Rice
1099929810432,788913,345,monkeystacks,Uncommon,JungleTV's Special Fried Rice
1099929810433,788913,346,monkeystacks,Uncommon,JungleTV's Special Fried Rice
1099929810434,788913,347,monkeystacks,Uncommon,JungleTV's Special Fried Rice
1099929810435,788913,348,monkeystacks,Uncommon,JungleTV's Special Fried Rice
1099929810436,788913,349,monkeystacks,Uncommon,JungleTV's Special Fried Rice
1099929810437,788913,350,monkeystacks,Uncommon,JungleTV's Special Fried Rice
1099929810438,788913,351,monkeystacks,Uncommon,JungleTV's Special Fried Rice
1099929810439,788913,352,monkeystacks,Uncommon,JungleTV's Special Fried Rice
1099929810440,788913,353,monkeystacks,Uncommon,JungleTV's Special Fried Rice
1099929810441,788913,354,monkeystacks,Uncommon,JungleTV's Special Fried Rice
1099929810442,788913,355,monkeystacks,Uncommon,JungleTV's Special Fried Rice
1099929810443,788913,356,monkeystacks,Uncommon,JungleTV's Special Fried Rice
1099929810444,788913,357,monkeystacks,Uncommon,JungleTV's Special Fried Rice
1099929810445,788913,358,monkeystacks,Uncommon,JungleTV's Special Fried Rice
1099929810446,788913,359,monkeystacks,Uncommon,JungleTV's Special Fried Rice
1099929810447,788913,360,monkeystacks,Uncommon,JungleTV's Special Fried Rice
1099929810448,788913,361,monkeystacks,Uncommon,JungleTV's Special Fried Rice
1099929810449,788913,362,monkeystacks,Uncommon,JungleTV's Special Fried Rice
1099929810450,788913,363,monkeystacks,Uncommon,JungleTV's Special Fried Rice
1099929810451,788913,364,monkeystacks,Uncommon,JungleTV's Special Fried Rice
1099929810452,788913,365,monkeystacks,Uncommon,JungleTV's Special Fried Rice
1099929810453,788913,366,monkeystacks,Uncommon,JungleTV's Special Fried Rice
1099929810454,788913,367,monkeystacks,Uncommon,JungleTV's Special Fried Rice
1099929810455,788913,368,monkeystacks,Uncommon,JungleTV's Special Fried Rice
1099929810456,788913,369,monkeystacks,Uncommon,JungleTV's Special Fried Rice
1099929810460,788913,370,monkeystacks,Uncommon,JungleTV's Special Fried Rice
1099929810461,788913,371,monkeystacks,Uncommon,JungleTV's Special Fried Rice
1099929810462,788913,372,monkeystacks,Uncommon,JungleTV's Special Fried Rice
1099929810463,788913,373,monkeystacks,Uncommon,JungleTV's Special Fried Rice
1099929810464,788913,374,monkeystacks,Uncommon,JungleTV's Special Fried Rice
1099929810465,788913,375,monkeystacks,Uncommon,JungleTV's Special Fried Rice
1099929810466,788913,376,monkeystacks,Uncommon,JungleTV's Special Fried Rice
1099929810467,788913,377,monkeystacks,Uncommon,JungleTV's Special Fried Rice
1099929810468,788913,378,monkeystacks,Uncommon,JungleTV's Special Fried Rice
1099929810469,788913,379,monkeystacks,Uncommon,JungleTV's Special Fried Rice
1099929810470,788913,380,monkeystacks,Uncommon,JungleTV's Special Fried Rice
1099929810471,788913,381,monkeystacks,Uncommon,JungleTV's Special Fried Rice
1099929810472,788913,382,monkeystacks,Uncommon,JungleTV's Special Fried Rice
1099929810473,788913,383,monkeystacks,Uncommon,JungleTV's Special Fried Rice
1099929810474,788913,384,monkeystacks,Uncommon,JungleTV's Special Fried Rice
1099929810475,788913,385,monkeystacks,Uncommon,JungleTV's Special Fried Rice
1099929810476,788913,386,monkeystacks,Uncommon,JungleTV's Special Fried Rice
1099929810477,788913,387,monkeystacks,Uncommon,JungleTV's Special Fried Rice
1099929810478,788913,388,monkeystacks,Uncommon,JungleTV's Special Fried Rice
1099929810479,788913,389,monkeystacks,Uncommon,JungleTV's Special Fried Rice
1099929810480,788913,390,monkeystacks,Uncommon,JungleTV's Special Fried Rice
1099929810481,788913,391,monkeystacks,Uncommon,JungleTV's Special Fried Rice
1099929810482,788913,392,monkeystacks,Uncommon,JungleTV's Special Fried Rice
1099929810483,788913,393,monkeystacks,Uncommon,JungleTV's Special Fried Rice
1099929810484,788913,394,monkeystacks,Uncommon,JungleTV's Special Fried Rice
1099929810485,788913,395,monkeystacks,Uncommon,JungleTV's Special Fried Rice
1099929810486,788913,396,monkeystacks,Uncommon,JungleTV's Special Fried Rice
1099929810487,788913,397,monkeystacks,Uncommon,JungleTV's Special Fried Rice
1099929810488,788913,398,monkeystacks,Uncommon,JungleTV's Special Fried Rice
1099929810489,788913,399,monkeystacks,Uncommon,JungleTV's Special Fried Rice
1099929810490,788913,400,monkeystacks,Uncommon,JungleTV's Special Fried Rice
1099929810491,788913,401,monkeystacks,Uncommon,JungleTV's Special Fried Rice
1099929810492,788913,402,monkeystacks,Uncommon,JungleTV's Special Fried Rice
1099929810493,788913,403,monkeystacks,Uncommon,JungleTV's Special Fried Rice
1099929810494,788913,404,monkeystacks,Uncommon,JungleTV's Special Fried Rice
1099929810495,788913,405,monkeystacks,Uncommon,JungleTV's Special Fried Rice
1099929810496,788913,406,monkeystacks,Uncommon,JungleTV's Special Fried Rice
1099929810497,788913,407,monkeystacks,Uncommon,JungleTV's Special Fried Rice
1099929810498,788913,408,monkeystacks,Uncommon,JungleTV's Special Fried Rice
1099929810499,788913,409,monkeystacks,Uncommon,JungleTV's Special Fried Rice
1099929810500,788913,410,monkeystacks,Uncommon,JungleTV's Special Fried Rice
1099929810501,788913,411,monkeystacks,Uncommon,JungleTV's Special Fried Rice
1099929810502,788913,412,monkeystacks,Uncommon,JungleTV's Special Fried Rice
1099929810503,788913,413,monkeystacks,Uncommon,JungleTV's Special Fried Rice
1099929810504,788913,414,monkeystacks,Uncommon,JungleTV's Special Fried Rice
1099929810505,788913,415,monkeystacks,Uncommon,JungleTV's Special Fried Rice
1099929810506,788913,416,monkeystacks,Uncommon,JungleTV's Special Fried Rice
1099929810507,788913,417,monkeystacks,Uncommon,JungleTV's Special Fried Rice
1099929810508,788913,418,monkeystacks,Uncommon,JungleTV's Special Fried Rice
1099929810509,788913,419,monkeystacks,Uncommon,JungleTV's Special Fried Rice
1099929810514,788913,420,monkeystacks,Uncommon,JungleTV's Special Fried Rice
1099929810515,788913,421,monkeystacks,Uncommon,JungleTV's Special Fried Rice
1099929810516,788913,422,monkeystacks,Uncommon,JungleTV's Special Fried Rice
1099929810517,788913,423,monkeystacks,Uncommon,JungleTV's Special Fried Rice
1099929810518,788913,424,monkeystacks,Uncommon,JungleTV's Special Fried Rice
1099929810519,788913,425,monkeystacks,Uncommon,JungleTV's Special Fried Rice
1099929810520,788913,426,monkeystacks,Uncommon,JungleTV's Special Fried Rice
1099929810521,788913,427,monkeystacks,Uncommon,JungleTV's Special Fried Rice
1099929810522,788913,428,monkeystacks,Uncommon,JungleTV's Special Fried Rice
1099929810523,788913,429,monkeystacks,Uncommon,JungleTV's Special Fried Rice
1099929810524,788913,430,monkeystacks,Uncommon,JungleTV's Special Fried Rice
1099929810525,788913,431,monkeystacks,Uncommon,JungleTV's Special Fried Rice
1099929810526,788913,432,monkeystacks,Uncommon,JungleTV's Special Fried Rice
1099929810527,788913,433,monkeystacks,Uncommon,JungleTV's Special Fried Rice
1099929810528,788913,434,monkeystacks,Uncommon,JungleTV's Special Fried Rice
1099929810529,788913,435,monkeystacks,Uncommon,JungleTV's Special Fried Rice
1099929810530,788913,436,monkeystacks,Uncommon,JungleTV's Special Fried Rice
1099929810531,788913,437,monkeystacks,Uncommon,JungleTV's Special Fried Rice
1099929810532,788913,438,monkeystacks,Uncommon,JungleTV's Special Fried Rice
1099929810533,788913,439,monkeystacks,Uncommon,JungleTV's Special Fried Rice
1099929810534,788913,440,monkeystacks,Uncommon,JungleTV's Special Fried Rice
1099929810535,788913,441,monkeystacks,Uncommon,JungleTV's Special Fried Rice
1099929810536,788913,442,monkeystacks,Uncommon,JungleTV's Special Fried Rice
1099929810537,788913,443,monkeystacks,Uncommon,JungleTV's Special Fried Rice
1099929810538,788913,444,monkeystacks,Uncommon,JungleTV's Special Fried Rice
1099929810539,788913,445,monkeystacks,Uncommon,JungleTV's Special Fried Rice